FW5647 Weather Reports


time (UTC)temp
F
wind
direction
speed
knots
gust
knots
rain 1hr
in
rain 24hr
in
rain mn
in
humidity
%
barometer
mb
20260901110043 70 0 0.0 0.9 0.00 0.16 0.00 93 1015.1
20260901104543 71 248 0.0 0.9 0.00 0.16 0.00 93 1015.0
20260901103043 71 0 0.0 2.6 0.00 0.16 0.00 92 1014.9
20260901101540 71 0 0.0 1.7 0.00 0.16 0.00 93 1014.9
20260901100047 71 257 0.0 3.5 0.00 0.16 0.00 93 1014.9
20260901094540 71 0 0.0 0.9 0.00 0.16 0.00 93 1015.0
20260901093043 71 0 0.0 1.7 0.00 0.16 0.00 93 1015.0
20260901091540 71 0 0.0 0.9 0.00 0.16 0.00 93 1014.7
20260901090037 71 233 0.0 1.7 0.00 0.16 0.00 94 1014.6
20260901084537 71 0 0.0 1.7 0.00 0.16 0.00 94 1014.7
20260901083041 71 0 0.0 0.9 0.00 0.16 0.00 94 1014.6
20260901081541 71 0 0.0 0.9 0.00 0.16 0.00 94 1014.7
20260901080042 71 0 0.0 0.0 0.00 0.16 0.00 94 1014.6
20260901074540 71 0 0.0 0.0 0.00 0.16 0.00 93 1014.6
20260901073039 72 0 0.0 0.0 0.00 0.16 0.00 93 1014.7
20260901071541 72 0 0.0 0.9 0.00 0.16 0.00 93 1014.7
20260901070051 72 0 0.0 0.0 0.00 0.16 0.00 93 1014.6
20260901064539 72 0 0.0 0.0 0.00 0.16 0.00 93 1014.6
20260901063054 72 0 0.0 1.7 0.00 0.16 0.00 92 1014.5
20260901061558 72 0 0.0 0.0 0.00 0.16 0.00 92 1014.7
20260901060039 73 0 0.0 0.9 0.00 0.16 0.00 91 1014.8
20260901054547 73 216 0.0 0.9 0.00 0.16 0.00 91 1015.0
20260901053056 74 200 0.0 1.7 0.00 0.16 0.00 90 1015.0
20260901051541 74 0 0.0 2.6 0.00 0.16 0.00 89 1014.9
20260901050041 74 231 0.0 1.7 0.00 0.16 0.00 89 1014.9
20260901044539 74 231 0.0 3.5 0.00 0.16 0.00 88 1014.9
20260901043042 74 229 1.7 3.5 0.00 0.16 0.00 88 1014.8
20260901041540 74 262 0.9 3.5 0.00 0.16 0.00 89 1014.7
20260901040044 74 193 0.9 7.8 0.00 0.16 0.00 88 1014.5
20260901034541 74 234 0.0 3.5 0.00 0.16 0.16 88 1014.7
20260901033041 74 229 1.7 5.2 0.00 0.16 0.16 87 1015.1
20260901031542 74 221 1.7 4.3 0.00 0.16 0.16 87 1015.1
20260901030040 73 189 1.7 4.3 0.00 0.16 0.16 87 1015.1
20260901024541 73 243 0.0 3.5 0.00 0.16 0.16 87 1015.4
20260901023043 73 145 0.0 1.7 0.00 0.16 0.16 87 1015.1
20260901021544 73 224 0.9 2.6 0.00 0.16 0.16 86 1015.0
20260901020047 73 194 0.0 3.5 0.00 0.16 0.16 85 1015.0
20260901014543 73 210 0.9 4.3 0.00 0.16 0.16 85 1014.9
20260901013039 73 0 0.0 3.5 0.00 0.16 0.16 84 1014.9
20260901011542 73 150 0.9 5.2 0.00 0.16 0.16 84 1014.6
20260901010043 74 101 1.7 3.5 0.00 0.16 0.16 83 1014.6
20260901004555 73 0 0.0 7.0 0.00 0.16 0.16 83 1014.6
20260901003039 73 211 1.7 7.8 0.00 0.16 0.16 84 1014.4
20260901001542 72 142 1.7 5.2 0.00 0.16 0.16 85 1014.1
20260901000100 72 184 0.9 5.2 0.00 0.16 0.16 86 1014.0
20260831234543 72 115 1.7 5.2 0.00 0.16 0.16 87 1014.2
20260831233042 72 199 1.7 5.2 0.00 0.16 0.16 87 1014.4
20260831231548 72 109 0.9 3.5 0.01 0.16 0.16 87 1014.4
20260831230039 73 143 0.9 5.2 0.02 0.16 0.16 87 1014.5
20260831224543 73 173 2.6 9.6 0.03 0.16 0.16 88 1014.8
20260831223047 73 91 3.5 10.4 0.04 0.16 0.16 88 1014.7
20260831221546 72 151 2.6 6.1 0.05 0.15 0.15 91 1015.2
20260831220041 72 262 2.6 6.1 0.05 0.14 0.14 92 1016.0
20260831214552 72 131 1.7 3.5 0.04 0.23 0.13 92 1016.2
20260831213050 73 122 0.9 0.9 0.09 0.22 0.12 90 1016.2
20260831211545 73 0 0.0 2.6 0.10 0.20 0.10 89 1016.4
20260831210041 74 140 0.9 3.5 0.09 0.19 0.09 87 1016.1
20260831204547 76 272 2.6 7.0 0.09 0.19 0.09 84 1016.4
20260831203046 80 0 0.0 3.5 0.03 0.13 0.03 79 1017.1
20260831201541 82 250 0.9 2.6 0.00 0.10 0.00 73 1016.9
20260831200040 83 170 0.9 3.5 0.00 0.10 0.00 70 1016.3
20260831194616 84 138 0.9 5.2 0.00 0.10 0.00 70 1016.4
20260831193044 85 125 1.7 5.2 0.00 0.10 0.00 67 1016.3
20260831191542 85 136 2.6 9.6 0.00 0.10 0.00 66 1016.3
20260831190054 85 98 4.3 8.7 0.00 0.10 0.00 65 1016.2
20260831184547 84 104 2.6 6.1 0.00 0.10 0.00 71 1016.3
20260831183046 84 160 1.7 7.0 0.00 0.10 0.00 68 1016.6
20260831181547 84 141 2.6 7.0 0.00 0.10 0.00 69 1016.6
20260831180049 82 158 0.9 4.3 0.00 0.10 0.00 73 1016.9
20260831174541 80 108 2.6 4.3 0.00 0.10 0.00 76 1016.9
20260831173040 79 149 1.7 3.5 0.00 0.10 0.00 78 1017.2
20260831171546 77 160 0.0 1.7 0.00 0.10 0.00 83 1017.3
20260831170040 75 0 0.0 1.7 0.00 0.10 0.00 88 1017.5
20260831164555 75 116 1.7 2.6 0.00 0.10 0.00 89 1017.0
20260831163040 75 0 0.0 0.0 0.00 0.10 0.00 87 1018.2
20260831161547 74 0 0.0 0.0 0.00 0.10 0.00 90 1018.4
20260831160043 74 0 0.0 0.9 0.00 0.10 0.00 87 1018.5
20260831154649 75 0 0.0 1.7 0.00 0.11 0.00 83 1018.4
20260831153049 76 246 0.9 4.3 0.00 0.11 0.00 80 1018.1
20260831151540 76 262 1.7 5.2 0.00 0.11 0.00 80 1018.0
20260831150042 75 308 0.9 5.2 0.00 0.11 0.00 82 1017.9
20260831144548 75 250 0.9 4.3 0.00 0.17 0.00 82 1017.8
20260831143105 76 258 1.7 7.0 0.00 0.17 0.00 82 1017.5
20260831141553 74 235 1.7 5.2 0.00 0.17 0.00 85 1017.4
20260831140052 74 280 0.9 4.3 0.00 0.17 0.00 85 1017.6
20260831134542 73 263 0.9 3.5 0.00 0.31 0.00 86 1017.5
20260831133047 73 268 1.7 4.3 0.00 0.31 0.00 85 1017.3
20260831131539 73 214 0.0 4.3 0.00 0.31 0.00 87 1017.1
20260831130043 72 180 0.0 3.5 0.00 0.31 0.00 88 1017.3
20260831124539 72 217 0.9 3.5 0.00 0.40 0.00 88 1017.0
20260831123041 71 0 0.9 2.6 0.00 0.40 0.00 90 1017.1
20260831121542 70 0 0.0 0.9 0.00 0.40 0.00 91 1017.1
20260831120044 69 0 0.0 0.0 0.00 0.40 0.00 92 1016.8
20260831114542 69 0 0.0 0.0 0.00 0.40 0.00 92 1016.9
20260831113048 69 0 0.0 0.9 0.00 0.40 0.00 92 1016.9
20260831111541 69 0 0.0 0.9 0.00 0.40 0.00 92 1016.8